{"data":{"norad_id":49416,"intl_designator":"2021-104J","name":"STARLINK-3133","alt_names":[],"object_type":"PAYLOAD","status":"ACTIVE","operator":null,"country":"US","launch_date":"2021-11-13","launch_site_code":"AFETR","launch_vehicle":null,"mission":null,"orbit_class":"UNKNOWN","rcs_meters":null,"size_class":null,"mass_kg":null,"dimensions":null,"purposes":["comms"],"wikipedia_slug":null,"has_3d_model":false,"image_url":null,"decayed_at":null,"tle_current":{"epoch":"2026-09-20T00:08:35.321568Z","epoch_age_seconds":84057,"freshness":"FRESH","line1":"1 49416U 21104J   26263.00596437  .00000194  00000+0  16872-4 0  9996","line2":"2 49416  53.1612  63.6830 0001065  82.0308 278.0815 15.34392599268145","mean_motion":15.34392599,"eccentricity":0.0001065,"inclination_deg":53.1612,"raan_deg":63.683,"arg_perigee_deg":82.0308,"mean_anomaly_deg":278.0815,"bstar":1.6872e-5,"rev_number":26814,"period_min":93.848210747268,"perigee_km":461.99668579891,"apogee_km":463.45378945552,"semimajor_km":6840.8622376272,"source":"CELESTRAK","updated_at":"2026-09-20T09:00:39.256480Z"}}}